When you browse on this site, cookies collect data to enhance your experience and personalize the content and advertising you see.
Visit our Privacy Policy to learn more. By continuing to use the site, you agree to this use of cookies and data.
  • In Czech Republic
  • List of Countries
  • For 7 days
  • Water Temperature
  • Weather Map
  • Weather Widgets
  • user-avatar
    Login

    Hourly Weather Comayagua

    Today, 23 October, Wednesday

    Time Temperature Precipitation Wind Pressure Humidity
    00:00 +23°C° 0.5 mm 1 mps 707 mmHg 96%
    01:00 +22°C° 0 mm 1 mps 707 mmHg 96%
    02:00 +22°C° 0 mm 1 mps 706 mmHg 95%
    03:00 +20°C° 0 mm 0 mps 706 mmHg 95%
    04:00 +20°C° 0 mm 0 mps 706 mmHg 95%
    05:00 +20°C° 0 mm 0 mps 706 mmHg 95%
    06:00 +20°C° 0 mm 0 mps 706 mmHg 95%
    07:00 +22°C° 0.1 mm 0 mps 707 mmHg 89%
    08:00 +24°C° 0.1 mm 0 mps 708 mmHg 84%
    09:00 +28°C° 0.1 mm 1 mps 709 mmHg 78%
    10:00 +29°C° 1.1 mm 1 mps 708 mmHg 77%
    11:00 +29°C° 1.1 mm 1 mps 707 mmHg 76%
    12:00 +30°C° 1.1 mm 1 mps 707 mmHg 74%
    13:00 +29°C° 1.6 mm 1 mps 706 mmHg 76%
    14:00 +29°C° 1.6 mm 1 mps 706 mmHg 78%
    15:00 +29°C° 1.6 mm 1 mps 705 mmHg 80%
    16:00 +27°C° 1.2 mm 1 mps 706 mmHg 85%
    17:00 +26°C° 1.2 mm 1 mps 706 mmHg 90%
    18:00 +25°C° 1.2 mm 1 mps 706 mmHg 94%
    19:00 +24°C° 0.9 mm 1 mps 706 mmHg 95%
    20:00 +24°C° 0.9 mm 1 mps 707 mmHg 95%
    21:00 +22°C° 0.9 mm 0 mps 708 mmHg 96%
    22:00 +22°C° 1.5 mm 0 mps 707 mmHg 96%
    23:00 +21°C° 1.5 mm 0 mps 707 mmHg 97%

    Tomorrow, 24 October, Thursday

    Time Temperature Precipitation Wind Pressure Humidity
    00:00 +23°C° 1.5 mm 1 mps 707 mmHg 98%
    01:00 +21°C° 0.4 mm 0 mps 707 mmHg 98%
    02:00 +21°C° 0.4 mm 0 mps 706 mmHg 97%
    03:00 +21°C° 0.4 mm 0 mps 706 mmHg 97%
    04:00 +21°C° 0 mm 0 mps 706 mmHg 97%
    05:00 +21°C° 0 mm 0 mps 707 mmHg 96%
    06:00 +21°C° 0 mm 0 mps 707 mmHg 96%
    07:00 +23°C° 0 mm 0 mps 707 mmHg 90%
    08:00 +24°C° 0 mm 0 mps 708 mmHg 85%
    09:00 +28°C° 0 mm 1 mps 709 mmHg 79%
    10:00 +29°C° 0.1 mm 1 mps 708 mmHg 72%
    11:00 +30°C° 0.1 mm 1 mps 708 mmHg 65%
    12:00 +32°C° 0.1 mm 1 mps 707 mmHg 58%
    13:00 +31°C° 0.7 mm 1 mps 706 mmHg 62%
    14:00 +29°C° 0.7 mm 0 mps 706 mmHg 66%
    15:00 +28°C° 0.7 mm 0 mps 705 mmHg 69%
    16:00 +26°C° 0.9 mm 0 mps 705 mmHg 76%
    17:00 +24°C° 0.9 mm 0 mps 705 mmHg 83%
    18:00 +23°C° 0.9 mm 0 mps 705 mmHg 90%
    19:00 +22°C° 0.5 mm 0 mps 706 mmHg 91%
    20:00 +22°C° 0.5 mm 0 mps 706 mmHg 92%
    21:00 +21°C° 0.5 mm 0 mps 707 mmHg 93%
    22:00 +21°C° 0.1 mm 0 mps 707 mmHg 93%
    23:00 +21°C° 0.1 mm 0 mps 707 mmHg 93%

    Day after tomorrow, 25 October, Friday

    Time Temperature Precipitation Wind Pressure Humidity
    00:00 +20°C° 0.1 mm 0 mps 707 mmHg 93%
    01:00 +20°C° 0 mm 0 mps 706 mmHg 94%
    02:00 +20°C° 0 mm 0 mps 706 mmHg 94%
    03:00 +20°C° 0 mm 0 mps 706 mmHg 94%
    04:00 +20°C° 0 mm 0 mps 706 mmHg 94%
    05:00 +20°C° 0 mm 0 mps 706 mmHg 94%
    06:00 +20°C° 0 mm 0 mps 706 mmHg 94%
    07:00 +22°C° 0 mm 0 mps 707 mmHg 86%
    08:00 +25°C° 0 mm 0 mps 708 mmHg 77%
    09:00 +27°C° 0 mm 0 mps 708 mmHg 68%
    10:00 +28°C° 0.4 mm 0 mps 708 mmHg 66%
    11:00 +29°C° 0.4 mm 0 mps 707 mmHg 64%
    12:00 +32°C° 0.4 mm 1 mps 707 mmHg 62%
    13:00 +31°C° 1.5 mm 1 mps 706 mmHg 65%
    14:00 +31°C° 1.5 mm 1 mps 705 mmHg 68%
    15:00 +30°C° 1.5 mm 1 mps 705 mmHg 71%
    16:00 +28°C° 0.7 mm 1 mps 705 mmHg 77%
    17:00 +27°C° 0.7 mm 1 mps 705 mmHg 83%
    18:00 +23°C° 0.7 mm 0 mps 705 mmHg 89%
    19:00 +22°C° 0.1 mm 0 mps 706 mmHg 89%
    20:00 +22°C° 0.1 mm 0 mps 706 mmHg 90%
    21:00 +21°C° 0.1 mm 0 mps 707 mmHg 91%
    22:00 +21°C° 0.1 mm 0 mps 707 mmHg 91%
    23:00 +21°C° 0.1 mm 0 mps 706 mmHg 92%

    26 October, Saturday

    Time Temperature Precipitation Wind Pressure Humidity
    00:00 +21°C° 0.1 mm 0 mps 706 mmHg 93%
    01:00 +20°C° 0 mm 0 mps 706 mmHg 93%
    02:00 +20°C° 0 mm 0 mps 706 mmHg 93%
    03:00 +20°C° 0 mm 0 mps 705 mmHg 94%
    04:00 +20°C° 0 mm 0 mps 706 mmHg 94%
    05:00 +20°C° 0 mm 0 mps 706 mmHg 94%
    06:00 +20°C° 0 mm 0 mps 706 mmHg 94%
    07:00 +23°C° 0 mm 0 mps 707 mmHg 86%
    08:00 +25°C° 0 mm 0 mps 707 mmHg 78%
    09:00 +28°C° 0 mm 0 mps 708 mmHg 70%
    10:00 +29°C° 0.4 mm 0 mps 707 mmHg 67%
    11:00 +29°C° 0.4 mm 0 mps 707 mmHg 65%
    12:00 +30°C° 0.4 mm 0 mps 706 mmHg 62%
    13:00 +29°C° 1.3 mm 0 mps 706 mmHg 67%
    14:00 +28°C° 1.3 mm 0 mps 705 mmHg 73%
    15:00 +28°C° 1.3 mm 0 mps 704 mmHg 78%
    16:00 +26°C° 1.5 mm 0 mps 705 mmHg 83%
    17:00 +24°C° 1.5 mm 0 mps 705 mmHg 87%
    18:00 +23°C° 1.5 mm 0 mps 705 mmHg 92%
    19:00 +23°C° 2.1 mm 0 mps 706 mmHg 93%
    20:00 +22°C° 2.1 mm 0 mps 706 mmHg 93%
    21:00 +22°C° 2.1 mm 0 mps 707 mmHg 94%
    22:00 +22°C° 0.8 mm 0 mps 707 mmHg 94%
    23:00 +21°C° 0.8 mm 0 mps 707 mmHg 94%

    27 October, Sunday

    Time Temperature Precipitation Wind Pressure Humidity
    00:00 +21°C° 0.8 mm 0 mps 707 mmHg 94%
    01:00 +23°C° 0.1 mm 1 mps 707 mmHg 94%
    02:00 +23°C° 0.1 mm 1 mps 706 mmHg 95%
    03:00 +23°C° 0.1 mm 1 mps 706 mmHg 95%
    04:00 +22°C° 0 mm 1 mps 706 mmHg 96%
    05:00 +22°C° 0 mm 1 mps 706 mmHg 96%
    06:00 +22°C° 0 mm 1 mps 707 mmHg 97%
    07:00 +24°C° 0 mm 1 mps 707 mmHg 91%
    08:00 +26°C° 0 mm 1 mps 708 mmHg 85%
    09:00 +27°C° 0 mm 1 mps 708 mmHg 79%
    10:00 +28°C° 0.1 mm 1 mps 708 mmHg 75%
    11:00 +29°C° 0.1 mm 1 mps 707 mmHg 71%
    12:00 +30°C° 0.1 mm 2 mps 707 mmHg 67%
    13:00 +30°C° 0.3 mm 2 mps 706 mmHg 68%
    14:00 +30°C° 0.3 mm 2 mps 706 mmHg 68%
    15:00 +30°C° 0.3 mm 2 mps 705 mmHg 69%
    16:00 +28°C° 0.7 mm 2 mps 706 mmHg 78%
    17:00 +26°C° 0.7 mm 1 mps 706 mmHg 87%
    18:00 +24°C° 0.7 mm 1 mps 706 mmHg 96%
    19:00 +24°C° 0.4 mm 1 mps 707 mmHg 96%
    20:00 +24°C° 0.4 mm 1 mps 707 mmHg 97%
    21:00 +23°C° 0.4 mm 1 mps 708 mmHg 97%
    22:00 +23°C° 0 mm 1 mps 707 mmHg 98%
    23:00 +23°C° 0 mm 1 mps 707 mmHg 98%

    28 October, Monday

    Time Temperature Precipitation Wind Pressure Humidity
    00:00 +23°C° 0 mm 1 mps 707 mmHg 98%
    01:00 +22°C° 0 mm 1 mps 707 mmHg 98%
    02:00 +22°C° 0 mm 1 mps 707 mmHg 98%
    03:00 +22°C° 0 mm 1 mps 707 mmHg 98%
    04:00 +22°C° 0 mm 1 mps 707 mmHg 98%
    05:00 +22°C° 0 mm 1 mps 707 mmHg 98%
    06:00 +21°C° 0 mm 1 mps 707 mmHg 98%
    07:00 +23°C° 0 mm 1 mps 708 mmHg 94%
    08:00 +24°C° 0 mm 2 mps 708 mmHg 90%
    09:00 +26°C° 0 mm 2 mps 709 mmHg 86%
    10:00 +27°C° 0 mm 2 mps 708 mmHg 80%
    11:00 +28°C° 0 mm 2 mps 708 mmHg 74%
    12:00 +29°C° 0 mm 2 mps 707 mmHg 68%
    13:00 +29°C° 0.2 mm 2 mps 707 mmHg 69%
    14:00 +29°C° 0.2 mm 2 mps 706 mmHg 69%
    15:00 +30°C° 0.2 mm 2 mps 706 mmHg 70%
    16:00 +28°C° 1 mm 2 mps 706 mmHg 79%
    17:00 +26°C° 1 mm 2 mps 706 mmHg 88%
    18:00 +24°C° 1 mm 1 mps 707 mmHg 97%
    19:00 +24°C° 1.4 mm 1 mps 707 mmHg 97%
    20:00 +23°C° 1.4 mm 1 mps 708 mmHg 97%
    21:00 +23°C° 1.4 mm 1 mps 708 mmHg 98%
    22:00 +23°C° 0.3 mm 1 mps 708 mmHg 98%
    23:00 +23°C° 0.3 mm 1 mps 708 mmHg 98%

    29 October, Tuesday

    Time Temperature Precipitation Wind Pressure Humidity
    00:00 +23°C° 0.3 mm 1 mps 708 mmHg 98%
    01:00 +23°C° 0 mm 1 mps 707 mmHg 98%
    02:00 +22°C° 0 mm 1 mps 707 mmHg 98%
    03:00 +22°C° 0 mm 1 mps 707 mmHg 98%
    04:00 +22°C° 0 mm 1 mps 707 mmHg 98%
    05:00 +22°C° 0 mm 1 mps 707 mmHg 98%
    06:00 +22°C° 0 mm 1 mps 708 mmHg 98%
    07:00 +23°C° 0 mm 2 mps 708 mmHg 95%
    08:00 +24°C° 0 mm 2 mps 708 mmHg 92%
    09:00 +25°C° 0 mm 2 mps 709 mmHg 89%
    10:00 +26°C° 0.3 mm 2 mps 708 mmHg 84%
    11:00 +27°C° 0.3 mm 2 mps 708 mmHg 80%
    12:00 +29°C° 0.3 mm 2 mps 707 mmHg 75%
    13:00 +28°C° 1.3 mm 2 mps 707 mmHg 79%
    14:00 +28°C° 1.3 mm 2 mps 706 mmHg 83%
    15:00 +27°C° 1.3 mm 2 mps 706 mmHg 87%
    16:00 +26°C° 0.9 mm 2 mps 706 mmHg 91%
    17:00 +25°C° 0.9 mm 2 mps 706 mmHg 94%
    18:00 +24°C° 0.9 mm 2 mps 707 mmHg 97%
    Show more